Flag for Spain Weather past 2 weeks in Barcelona, Barcelona, Spain

Now
75 °F

Passing clouds.


Feels Like: 77 °F
Forecast: 58 / 70 °F
Wind: 6 mph from East

Location: Barcelona Airport

Current Time: Oct 21, 2014 at 5:19:43 PM

Latest Report: Oct 21, 2014 at 5:00 PM


Visibility: N/A

Pressure: 30.07 "Hg

Humidity: 69%

Dew point: 64 °F

Location of BarcelonaLocation

Historic Weather in Barcelona — Graph

°F

Barcelona temperature yesterday

Maximum temperature yesterday: 75 °F (at 12:30 PM)
Minimum temperature yesterday: 61 °F (at 8:30 AM)
Average temperature yesterday: 69 °F

Past Weeks' High & Low Weather Summary

 TemperatureHumidityPressure
High81 °F (Oct 21, 1:00 PM)100% (Oct 10, 11:00 PM)30.24 "Hg (Oct 10, 11:00 PM)
Low59 °F (Oct 15, 3:00 AM)39% (Oct 21, 1:00 PM)29.71 "Hg (Oct 14, 4:00 PM)
Average69 °F79%29.94 "Hg
* Reported Oct 6 4:00 PM — Oct 21 4:00 PM, Barcelona, Weather by CustomWeather, © 2014

Note: Actual official high and low records may vary slightly from our data, if they occured in-between our weather recording intervals... More about our weather records

Advertising

Barcelona weather history for previous 24 hours

 ConditionsComfort  
Time TempWeatherWind HumidityBarometerVisibility
4:00 PM
Oct 21
75 °FPassing clouds.8 mph74%30.07 "HgN/A
3:30 PM75 °FSunny.12 mph74%30.07 "Hg10 mi
3:00 PM75 °FPassing clouds.10 mph69%30.07 "HgN/A
2:30 PM77 °FSunny.13 mph69%30.07 "Hg10 mi
2:00 PM77 °FSunny.13 mph65%30.07 "Hg10 mi
1:30 PM79 °FSunny.12 mph54%30.09 "Hg10 mi
1:00 PM81 °FPassing clouds.9 mph39%30.09 "HgN/A
12:30 PM79 °FPassing clouds.12 mph45%30.09 "HgN/A
12:00 PM77 °FPassing clouds.10 mph47%30.09 "HgN/A
11:30 AM75 °FPassing clouds.8 mph50%30.09 "HgN/A
11:00 AM72 °FPassing clouds.14 mph57%30.09 "HgN/A
10:30 AM70 °FPassing clouds.12 mph60%30.09 "HgN/A
10:00 AM66 °FSunny.12 mph64%30.09 "Hg10 mi
9:30 AM64 °FPassing clouds.12 mph68%30.09 "HgN/A
9:00 AM63 °FPassing clouds.9 mph73%30.09 "HgN/A
8:30 AM63 °FPassing clouds.10 mph73%30.07 "HgN/A
8:00 AM61 °FPassing clouds.8 mph77%30.07 "HgN/A
7:30 AM63 °FPassing clouds.8 mph73%30.07 "HgN/A
7:00 AM63 °FPassing clouds.8 mph77%30.07 "HgN/A
6:30 AM64 °FPassing clouds.6 mph68%30.07 "HgN/A
6:00 AM64 °FPassing clouds.6 mph68%30.07 "HgN/A
5:30 AM64 °FPassing clouds.5 mph68%30.07 "HgN/A
5:00 AM64 °FPassing clouds.6 mph73%30.07 "HgN/A
4:30 AM66 °FPassing clouds.6 mph68%30.07 "HgN/A
4:00 AM64 °FPassing clouds.6 mph73%30.07 "HgN/A
3:30 AM64 °FPassing clouds.8 mph73%30.09 "HgN/A
2:30 AM66 °FPassing clouds.8 mph73%30.09 "HgN/A
2:00 AM66 °FPassing clouds.5 mph78%30.09 "HgN/A
1:30 AM66 °FPassing clouds.6 mph73%30.09 "HgN/A
1:00 AM68 °FPassing clouds.7 mph69%30.09 "HgN/A
12:30 AM68 °FPassing clouds.8 mph69%30.09 "HgN/A
12:00 AM70 °FPassing clouds.6 mph64%30.09 "HgN/A
11:30 PM
Oct 20
70 °FPassing clouds.3 mph64%30.09 "HgN/A
11:00 PM68 °FPassing clouds.6 mph64%30.09 "HgN/A
10:30 PM70 °FPassing clouds.7 mph64%30.09 "HgN/A
10:00 PM70 °FPassing clouds.6 mph64%30.09 "HgN/A
9:30 PM70 °FPassing clouds.8 mph64%30.09 "HgN/A
9:00 PM72 °FPassing clouds.14 mph65%30.09 "HgN/A
8:30 PM70 °FPassing clouds.14 mph73%30.09 "HgN/A
8:00 PM72 °FPassing clouds.14 mph69%30.09 "HgN/A
7:30 PM72 °FSunny.15 mph69%30.09 "Hg10 mi
7:00 PM72 °FSunny.16 mph69%30.07 "Hg10 mi
6:30 PM73 °FSunny.14 mph69%30.07 "Hg10 mi
6:00 PM73 °FSunny.13 mph69%30.09 "Hg10 mi
5:30 PM73 °FSunny.17 mph74%30.09 "Hg10 mi
5:00 PM73 °FSunny.16 mph78%30.09 "Hg10 mi
Weather by CustomWeather, © 2014

See weather overviewHow to use our weather pages